This demonstration page uses our WeatherBlox Daily Observations layout. Learn more.

Left ArrowRight Arrow

44.8408, -93.29828

Hourly Observations for May 20, 2022

Temp ( °F °C ) Dew Point ( °F °C ) Humidity (%) Winds ( mph kmh ) Pressure ( in mb ) Visibility ( mi km ) Precip ( " mm )
12:53 am 00:53 Partly Cloudy 59 15 55 12.8 87 87 NW 7 11 29.27 991 10 16 0.00 0.00
1:39 am 01:39 Mostly Cloudy 60 15.6 55 12.8 84 84 NW 10 17 29.30 992 10 16 0.00 0.00
1:48 am 01:48 Mostly Cloudy 61 16 55 13 83 83 NW 10 17 29.30 992 10 16 0.00 0.00
1:53 am 01:53 Mostly Cloudy 60 15.6 55 12.8 84 84 NW 8 13 29.31 993 10 16 0.00 0.00
2:10 am 02:10 Cloudy 61 16.1 55 12.8 81 81 W 12 19 29.36 994 10 16 0.00 0.00
2:53 am 02:53 Cloudy with Rain 59 15 54 12.2 83 83 VRB 7 11 29.35 994 9 14 0.00 0.00
3:53 am 03:53 Cloudy with Light Rain 58 14.4 54 12.2 87 87 W 7 11 29.36 994 10 16 0.05 1.27
4:53 am 04:53 Cloudy 57 13.9 53 11.7 87 87 W 7 11 29.34 994 10 16 0.00 0.00
5:53 am 05:53 Cloudy with Light Rain 55 12.8 51 10.6 87 87 W 14 22 29.36 994 10 16 0.00 0.00
6:28 am 06:28 Cloudy 54 12.2 49 9.4 83 83 W 14 22 29.42 996 10 16 0.00 0.00
6:53 am 06:53 Cloudy 53 11.7 48 8.9 83 83 NW 8 13 29.38 995 10 16 0.00 0.00
7:53 am 07:53 Cloudy 53 11.7 47 8.3 80 80 W 8 13 29.39 995 10 16 0.00 0.00
8:03 am 08:03 Cloudy with Thunderstorms 54 12.2 47 8.3 77 77 SW 7 11 29.41 996 10 16 0.00 0.00
8:20 am 08:20 Cloudy with Light Rain 54 12.2 48 8.9 80 80 W 7 11 29.42 996 10 16 0.00 0.00
8:53 am 08:53 Cloudy 53 11.7 48 8.9 83 83 W 8 13 29.44 997 10 16 0.00 0.00
9:53 am 09:53 Cloudy 54 12.2 48 8.9 80 80 WSW 9 15 29.45 997 10 16 0.00 0.00
10:53 am 10:53 Cloudy 55 12.8 48 8.9 77 77 WSW 9 15 29.48 998 10 16 0.00 0.00
11:53 am 11:53 Mostly Cloudy 58 14.4 46 7.8 65 65 WSW 13 20 29.49 999 10 16 0.00 0.00
12:53 pm 12:53 Mostly Cloudy 60 15.6 44 6.7 56 56 SW 14 22 29.51 999 10 16 0.00 0.00
1:53 pm 13:53 Cloudy 62 16.7 43 6.1 50 50 WSW 16 26 29.51 999 10 16 0.00 0.00
2:53 pm 14:53 Mostly Cloudy 63 17.2 44 6.7 50 50 WSW 18 30 29.52 1000 10 16 0.00 0.00
3:53 pm 15:53 Mostly Cloudy 66 18.9 41 5 40 40 W 17 28 29.52 1000 10 16 0.00 0.00
4:53 pm 16:53 Mostly Cloudy 63 17.2 42 5.6 47 47 W 16 26 29.55 1001 10 16 0.00 0.00
5:53 pm 17:53 Mostly Cloudy 63 17.2 41 5 45 45 W 17 28 29.59 1002 10 16 0.00 0.00
6:53 pm 18:53 Mostly Cloudy 62 16.7 40 4.4 44 44 W 15 24 29.61 1003 10 16 0.00 0.00
7:53 pm 19:53 Mostly Cloudy 60 15.6 42 5.6 52 52 WNW 12 19 29.65 1004 10 16 0.00 0.00
8:53 pm 20:53 Mostly Cloudy 58 14.4 42 5.6 56 56 WNW 15 24 29.69 1005 10 16 0.00 0.00
9:53 pm 21:53 Clear 55 12.8 42 5.6 62 62 NW 18 30 29.74 1007 10 16 0.00 0.00
10:53 pm 22:53 Partly Cloudy 50 10 38 3.3 63 63 NW 21 33 29.80 1009 10 16 0.00 0.00
11:53 pm 23:53 Partly Cloudy 48 8.9 36 2.2 63 63 WNW 12 19 29.84 1011 10 16 0.00 0.00

Powered by AerisWeather